{"data":{"norad_id":61240,"intl_designator":"2024-174C","name":"2024-174C","alt_names":[],"object_type":"PAYLOAD","status":"ACTIVE","operator":null,"country":"PRC","launch_date":"2024-09-24","launch_site_code":"JSC","launch_vehicle":null,"mission":null,"orbit_class":"UNKNOWN","rcs_meters":null,"size_class":null,"mass_kg":null,"dimensions":null,"purposes":[],"wikipedia_slug":null,"has_3d_model":false,"image_url":null,"decayed_at":null,"tle_current":{"epoch":"2026-05-25T05:01:12.374400Z","epoch_age_seconds":56986,"freshness":"FRESH","line1":"1 61240U 24174C   26145.20917100  .00003574  00000+0  17558-3 0  9996","line2":"2 61240  97.4424 153.4998 0000538  28.5512 331.5752 15.18697835 92193","mean_motion":15.18697835,"eccentricity":5.38e-5,"inclination_deg":97.4424,"raan_deg":153.4998,"arg_perigee_deg":28.5512,"mean_anomaly_deg":331.5752,"bstar":0.00017558,"rev_number":9219,"period_min":94.818071561944,"perigee_km":509.40446473044,"apogee_km":510.14560406534,"semimajor_km":6887.9120343979,"source":"CELESTRAK","updated_at":"2026-05-25T13:38:02.345744Z"}}}